Date String (YYYY-MM-DD hh:mm:ss) UTC,Instrument flags,Ambient pressure (hPa),Sample flow (lpm),Bypass flow (lpm),Sample temperature (°C),Ambient temperature (°C),ASC tube jacket temperature (°C),LED temperature (°C),Box temperature (°C),Sample RH (%),Span deviation,Mass concentration (μg/m³),Mass concentration (μg/m³),Mass concentration (μg/m³)
DateTimeUTC,F1_M11,P_M11,Q1_M11,Q2_M11,T1_M11,T2_M11,T3_M11,T4_M11,T5_M11,U1_M11,ZSPAN_M11,X0_M11,X2_M11,X1_M11
2022-02-02 08:00:00,,0824.6,5.01,0.00,22.2,21.9,00.0,31.2,23.9,07.6,0000.0,0003.75,0002.00,0001.53
2022-02-02 08:01:00,,0824.8,4.99,0.00,22.1,21.5,00.0,31.2,23.7,07.6,0000.0,0003.70,0001.97,0001.52
2022-02-02 08:02:00,,0824.6,5.02,0.00,22.1,21.3,00.0,31.2,23.6,07.7,0000.0,0003.77,0001.98,0001.51
2022-02-02 08:03:00,,0824.6,4.99,0.00,22.0,21.0,00.0,31.1,23.5,07.7,0000.0,0003.99,0002.03,0001.50
2022-02-02 08:04:00,,0824.7,5.01,0.00,21.9,20.8,00.0,31.1,23.4,07.7,0000.0,0003.74,0002.03,0001.48
2022-02-02 08:05:00,,0824.6,5.00,0.00,22.0,21.3,00.0,31.1,23.5,07.7,0000.0,0003.26,0002.04,0001.46
2022-02-02 08:06:00,,0824.6,5.00,0.00,22.1,22.2,00.0,31.1,23.8,07.6,0000.0,0003.17,0002.00,0001.43
2022-02-02 08:07:00,,0824.6,4.99,0.00,22.2,22.9,00.0,31.2,24.1,07.6,0000.0,0003.10,0001.96,0001.42
2022-02-02 08:08:00,,0824.6,5.00,0.00,22.3,22.7,00.0,31.2,24.1,07.6,0000.0,0003.32,0001.95,0001.41
2022-02-02 08:09:00,,0824.6,5.02,0.00,22.2,22.2,00.0,31.2,24.0,07.6,0000.0,0003.29,0001.92,0001.40
2022-02-02 08:10:00,,0824.6,4.99,0.00,22.2,21.8,00.0,31.2,23.8,07.6,0000.0,0003.33,0001.94,0001.40
2022-02-02 08:11:00,,0824.6,4.99,0.00,22.1,21.4,00.0,31.1,23.7,07.6,0000.0,0003.39,0001.94,0001.40
2022-02-02 08:12:00,,0824.6,5.01,0.00,22.1,21.1,00.0,31.1,23.6,07.6,0000.0,0004.17,0001.97,0001.40
2022-02-02 08:13:00,,0824.5,4.99,0.00,22.0,20.9,00.0,31.1,23.5,07.6,0000.0,0004.28,0001.96,0001.41
2022-02-02 08:14:00,,0824.5,5.03,0.00,21.9,20.7,00.0,31.1,23.4,07.7,0000.0,0004.15,0001.94,0001.41
2022-02-02 08:15:00,,0824.5,5.00,0.00,21.9,20.7,00.0,31.0,23.4,07.7,0000.0,0004.10,0001.91,0001.42
2022-02-02 08:16:00,,0824.5,5.01,0.00,21.9,21.6,00.0,31.1,23.6,07.7,0000.0,0004.05,0001.88,0001.43
2022-02-02 08:17:00,,0824.5,4.99,0.00,22.1,22.5,00.0,31.1,23.9,07.6,0000.0,0004.16,0001.87,0001.44
2022-02-02 08:18:00,,0824.5,5.01,0.00,22.2,22.9,00.0,31.1,24.1,07.6,0000.0,0004.41,0001.91,0001.46
2022-02-02 08:19:00,,0824.4,4.99,0.00,22.2,22.5,00.0,31.1,24.0,07.5,0000.0,0004.44,0001.90,0001.46
2022-02-02 08:20:00,,0824.4,5.00,0.00,22.2,22.0,00.0,31.1,23.9,07.6,0000.0,0004.74,0001.93,0001.47
2022-02-02 08:21:00,,0824.4,5.01,0.00,22.2,21.7,00.0,31.1,23.8,07.6,0000.0,0004.83,0001.93,0001.46
2022-02-02 08:22:00,,0824.4,4.98,0.00,22.1,21.4,00.0,31.1,23.7,07.6,0000.0,0004.94,0001.93,0001.46
2022-02-02 08:23:00,,0824.5,5.01,0.00,22.0,21.2,00.0,31.1,23.6,07.6,0000.0,0004.35,0001.93,0001.45
2022-02-02 08:24:00,,0824.4,4.99,0.00,22.0,20.9,00.0,31.1,23.5,07.7,0000.0,0004.39,0001.96,0001.46
2022-02-02 08:25:00,,0824.4,5.02,0.00,21.9,20.7,00.0,31.0,23.4,07.7,0000.0,0004.41,0001.96,0001.46
2022-02-02 08:26:00,,0824.4,4.99,0.00,21.9,21.0,00.0,31.0,23.4,07.7,0000.0,0004.32,0001.94,0001.45
2022-02-02 08:27:00,,0824.4,5.00,0.00,22.0,21.9,00.0,31.0,23.6,07.7,0000.0,0004.32,0001.94,0001.44
2022-02-02 08:28:00,,0824.4,5.01,0.00,22.1,22.8,00.0,31.1,23.9,07.6,0000.0,0004.26,0001.97,0001.45
2022-02-02 08:29:00,,0824.4,4.99,0.00,22.2,22.8,00.0,31.1,24.1,07.6,0000.0,0003.98,0001.92,0001.43
2022-02-02 08:30:00,,0824.4,5.01,0.00,22.2,22.3,00.0,31.1,24.0,07.6,0000.0,0003.73,0001.94,0001.42
2022-02-02 08:31:00,,0824.4,4.99,0.00,22.1,21.8,00.0,31.1,23.8,07.6,0000.0,0003.54,0001.97,0001.43
2022-02-02 08:32:00,,0824.4,5.00,0.00,22.1,21.5,00.0,31.1,23.7,07.6,0000.0,0005.60,0001.98,0001.44
2022-02-02 08:33:00,,0824.4,5.00,0.00,22.0,21.2,00.0,31.1,23.6,07.6,0000.0,0006.04,0002.01,0001.45
2022-02-02 08:34:00,,0824.4,5.02,0.00,21.9,21.0,00.0,31.0,23.5,07.6,0000.0,0005.92,0002.01,0001.45
2022-02-02 08:35:00,,0824.4,5.00,0.00,21.9,20.9,00.0,31.0,23.4,07.6,0000.0,0006.11,0002.05,0001.45
2022-02-02 08:36:00,,0824.4,5.00,0.00,21.8,21.0,00.0,31.0,23.4,07.6,0000.0,0006.09,0002.03,0001.45
2022-02-02 08:37:00,,0824.4,4.99,0.00,21.9,21.8,00.0,31.0,23.6,07.6,0000.0,0006.30,0002.06,0001.46
2022-02-02 08:38:00,,0824.4,5.01,0.00,22.1,22.7,00.0,31.1,23.9,07.5,0000.0,0006.34,0002.07,0001.47
2022-02-02 08:39:00,,0824.4,5.01,0.00,22.2,22.8,00.0,31.1,24.1,07.5,0000.0,0006.42,0002.09,0001.47
2022-02-02 08:40:00,,0824.3,5.01,0.00,22.2,22.4,00.0,31.1,24.0,07.5,0000.0,0006.47,0002.09,0001.48
2022-02-02 08:41:00,,0824.3,4.99,0.00,22.2,21.9,00.0,31.1,23.9,07.5,0000.0,0006.44,0002.08,0001.48
2022-02-02 08:42:00,,0824.3,5.01,0.00,22.1,21.6,00.0,31.1,23.7,07.5,0000.0,0006.36,0002.01,0001.47
2022-02-02 08:43:00,,0824.4,5.00,0.00,22.0,21.3,00.0,31.1,23.6,07.5,0000.0,0004.13,0001.98,0001.48
2022-02-02 08:44:00,,0824.4,5.00,0.00,22.0,21.0,00.0,31.0,23.5,07.5,0000.0,0003.79,0002.01,0001.49
2022-02-02 08:45:00,,0824.4,4.99,0.00,21.9,20.8,00.0,31.0,23.4,07.6,0000.0,0003.77,0002.02,0001.49
2022-02-02 08:46:00,,0824.4,5.00,0.00,21.8,20.8,00.0,31.0,23.4,07.6,0000.0,0003.58,0001.98,0001.49
2022-02-02 08:47:00,,0824.4,5.00,0.00,21.9,21.7,00.0,31.0,23.6,07.5,0000.0,0003.60,0002.00,0001.49
2022-02-02 08:48:00,,0824.4,5.00,0.00,22.1,22.6,00.0,31.0,23.9,07.5,0000.0,0003.39,0001.98,0001.48
2022-02-02 08:49:00,,0824.4,5.01,0.00,22.2,22.9,00.0,31.1,24.0,07.4,0000.0,0003.26,0001.93,0001.48
2022-02-02 08:50:00,,0824.4,5.00,0.00,22.2,22.4,00.0,31.1,24.0,07.4,0000.0,0003.22,0001.93,0001.48
2022-02-02 08:51:00,,0824.4,4.99,0.00,22.2,22.0,00.0,31.1,23.9,07.4,0000.0,0003.29,0001.99,0001.49
2022-02-02 08:52:00,,0824.3,4.99,0.00,22.1,21.6,00.0,31.1,23.8,07.4,0000.0,0003.37,0002.01,0001.48
2022-02-02 08:53:00,,0824.3,5.02,0.00,22.0,21.3,00.0,31.0,23.6,07.4,0000.0,0003.43,0002.04,0001.47
2022-02-02 08:54:00,,0824.3,4.99,0.00,22.0,21.0,00.0,31.0,23.5,07.4,0000.0,0003.55,0002.10,0001.47
2022-02-02 08:55:00,,0824.3,5.00,0.00,21.9,20.8,00.0,31.0,23.4,07.5,0000.0,0003.40,0002.09,0001.45
2022-02-02 08:56:00,,0824.3,5.01,0.00,21.9,21.2,00.0,31.0,23.4,07.5,0000.0,0003.29,0002.06,0001.44
2022-02-02 08:57:00,,0824.3,5.00,0.00,22.0,22.1,00.0,31.0,23.7,07.4,0000.0,0003.17,0002.02,0001.43
2022-02-02 08:58:00,,0824.4,4.99,0.00,22.1,22.8,00.0,31.1,24.0,07.4,0000.0,0003.12,0002.00,0001.42
2022-02-02 08:59:00,,0824.4,5.00,0.00,22.2,22.7,00.0,31.1,24.1,07.3,0000.0,0003.18,0002.03,0001.42
